Decatur, IL

6:13 PM CST on November 22, 2017 (GMT -0600)
Decatur

Weather History for KDEC - November, 2011

Change the Weather History Date:

Saturday, November 5, 2011

  Actual Average Record
Temperature  
Mean Temperature 45 °F 48 °F  
Max Temperature 59 °F 57 °F 75 °F (1999)
Min Temperature 31 °F 38 °F 27 °F (2010)
Degree Days  
Heating Degree Days 20 17  
Month to date heating degree days 72 83  
Since 1 July heating degree days 472 501  
Cooling Degree Days 0 0  
Month to date cooling degree days 0 0  
Year to date cooling degree days 1327 1048  
Moisture  
Dew Point 37 °F    
Average Humidity 70    
Maximum Humidity 89    
Minimum Humidity 51    
Precipitation  
Precipitation 0.00 in 0.11 in 0.35 in (2002)
Month to date precipitation 0.93 0.54  
Year to date precipitation 29.13 33.02  
Sea Level Pressure  
Sea Level Pressure 30.18 in    
Wind  
Wind Speed 10 mph (SE)    
Max Wind Speed 17 mph    
Max Gust Speed 22 mph    
Visibility 10 miles    
Events      
T = Trace of Precipitation, MM = Missing Value Source: NWS Daily Summary

Daily Weather History Graph

Daily Weather History Graph

Search for Another Location

Airport or City:

Trip Planner

Search our weather history database for the weather conditions in past years. The results will help you decide how hot, cold, wet, or windy it might be!

Date:

Astronomy

Nov. 05, 2011 Rise Set
Actual Time 7:28 AM CDT 5:49 PM CDT
Civil Twilight 7:00 AM CDT 6:17 PM CDT
Nautical Twilight 6:28 AM CDT 6:49 PM CDT
Astronomical Twilight 5:56 AM CDT 7:20 PM CDT
Moon 3:06 PM CDT (11/5) 2:38 AM CDT (11/5)
Length of Visible Light 11h 17m
Length of Day
10h 20m
Waxing Gibbous, 78% of the Moon is Illuminated
Nov 5
Waxing Gibbous
Nov 10
Full
Nov 18
Last Quarter
Nov 25
New
Dec 2
First Quarter

Hourly Weather History & Observations

Time (CDT) Temp. Windchill Dew Point Humidity Pressure Visibility Wind Dir Wind Speed Gust Speed Precip Events Conditions
12:54 AM 34.0 °F 28.8 °F 30.9 °F 89% 30.26 in 10.0 mi ESE 5.8 mph - N/A   Clear
1:54 AM 33.1 °F 28.7 °F 30.0 °F 89% 30.25 in 10.0 mi East 4.6 mph - N/A   Clear
2:54 AM 33.1 °F 26.9 °F 30.0 °F 89% 30.24 in 10.0 mi ESE 6.9 mph - N/A   Clear
3:54 AM 35.1 °F 29.3 °F 30.9 °F 85% 30.24 in 10.0 mi ESE 6.9 mph - N/A   Clear
4:54 AM 34.0 °F 27.2 °F 30.9 °F 89% 30.24 in 10.0 mi ESE 8.1 mph - N/A   Clear
5:54 AM 34.0 °F 28.0 °F 30.9 °F 89% 30.25 in 10.0 mi ESE 6.9 mph - N/A   Clear
6:54 AM 33.1 °F 27.7 °F 30.0 °F 89% 30.25 in 10.0 mi ESE 5.8 mph - N/A   Clear
7:54 AM 33.1 °F 28.7 °F 30.9 °F 92% 30.26 in 10.0 mi ESE 4.6 mph - N/A   Clear
8:54 AM 39.0 °F 32.8 °F 34.0 °F 82% 30.27 in 10.0 mi SE 9.2 mph - N/A   Clear
9:54 AM 42.8 °F 37.5 °F 35.6 °F 76% 30.25 in 10.0 mi SSE 9.2 mph - N/A   Clear
10:54 AM 48.9 °F - 39.9 °F 71% 30.25 in 10.0 mi South 12.7 mph - N/A   Clear
11:54 AM 52.0 °F - 42.1 °F 69% 30.23 in 10.0 mi South 10.4 mph - N/A   Clear
12:54 PM 55.9 °F - 42.1 °F 60% 30.20 in 10.0 mi South 15.0 mph 20.7 mph N/A   Clear
1:54 PM 57.0 °F - 42.1 °F 57% 30.17 in 10.0 mi SSE 17.3 mph - N/A   Clear
2:54 PM 57.9 °F - 42.1 °F 56% 30.14 in 10.0 mi SSE 17.3 mph - N/A   Clear
3:54 PM 57.9 °F - 42.1 °F 56% 30.12 in 10.0 mi SSE 13.8 mph - N/A   Clear
4:54 PM 57.0 °F - 39.9 °F 53% 30.11 in 10.0 mi SSE 15.0 mph - N/A   Clear
5:54 PM 53.1 °F - 39.9 °F 61% 30.09 in 10.0 mi SE 12.7 mph - N/A   Clear
6:54 PM 50.0 °F - 39.9 °F 68% 30.10 in 10.0 mi SE 9.2 mph - N/A   Clear
7:54 PM 48.9 °F - 39.0 °F 69% 30.10 in 10.0 mi SSE 9.2 mph - N/A   Clear
8:54 PM 50.0 °F - 37.9 °F 63% 30.08 in 10.0 mi SE 11.5 mph - N/A   Clear
9:54 PM 46.0 °F 41.9 °F 37.9 °F 73% 30.09 in 10.0 mi SE 8.1 mph - N/A   Clear
10:54 PM 46.9 °F - 37.9 °F 71% 30.08 in 10.0 mi SSE 9.2 mph - N/A   Clear
11:54 PM 48.0 °F - 39.9 °F 74% 30.07 in 10.0 mi SSE 10.4 mph - N/A   Clear